Weather History for KSNT - July, 2013

Change the Weather History Date:

Thursday, July 11, 2013

  Actual Average Record
Temperature  
Mean Temperature 59 °F 57 °F  
Max Temperature 72 °F 77 °F 95 °F (2002)
Min Temperature 46 °F 36 °F 20 °F (1918)
Degree Days  
Heating Degree Days 6 8  
Month to date heating degree days 41 107  
Since 1 June heating degree days 410 561  
Since 1 July heating degree days 41 107  
Cooling Degree Days 0 0  
Month to date cooling degree days 13 0  
Year to date cooling degree days 16 0  
Since 1 June cooling degree days 16 0  
Growing Degree Days 8 (Base 50)    
Moisture  
Dew Point 38 °F    
Average Humidity 49    
Maximum Humidity 71    
Minimum Humidity 26    
Precipitation  
Precipitation 0.00 in 0.02 in 0.38 in (1968)
Month to date precipitation 0.27 0.29  
Year to date precipitation 6.20 10.21  
Sea Level Pressure  
Sea Level Pressure 29.83 in    
Wind  
Wind Speed 5 mph (SSE)    
Max Wind Speed 18 mph    
Max Gust Speed 30 mph    
T = Trace of Precipitation, MM = Missing Value Source: NWS Daily Summary

Daily Weather History Graph

Daily Weather History Graph

Search for Another Location

Airport or City:

Trip Planner

Search our weather history database for the weather conditions in past years. The results will help you decide how hot, cold, wet, or windy it might be!

Date:

Astronomy

Jul. 11, 2013 Rise Set
Actual Time 6:07 AM MDT 9:23 PM MDT
Civil Twilight 5:31 AM MDT 9:58 PM MDT
Nautical Twilight 4:45 AM MDT 10:44 PM MDT
Astronomical Twilight 3:48 AM MDT 11:40 PM MDT
Moon 9:38 AM MDT (7/11) 10:55 PM MDT (7/11)
Length of Visible Light 16h 26m
Length of Day
15h 15m
Waxing Crescent, 11% of the Moon is Illuminated
Jul 11
Waxing Crescent
Jul 15
First Quarter
Jul 22
Full
Jul 29
Last Quarter
Aug 6
New

Hourly Weather History & Observations

Time (MDT) Temp. Dew Point Humidity Pressure Visibility Wind Dir Wind Speed Gust Speed Precip Events Conditions
12:51 AM 54.0 °F 36.0 °F 51% 29.77 in - Calm Calm - N/A   Unknown
1:51 AM 53.1 °F 36.0 °F 52% 29.76 in - Calm Calm - N/A   Unknown
2:51 AM 52.0 °F 36.0 °F 54% 29.77 in - Calm Calm - N/A   Unknown
3:51 AM 50.0 °F 36.0 °F 59% 29.78 in - South 3.5 mph - N/A   Unknown
4:51 AM 48.0 °F 36.0 °F 63% 29.78 in - Calm Calm - N/A   Unknown
5:51 AM 48.0 °F 36.0 °F 63% 29.77 in - Calm Calm - N/A   Unknown
6:51 AM 46.9 °F 37.9 °F 71% 29.82 in - Calm Calm - N/A   Unknown
7:51 AM 51.1 °F 37.9 °F 61% 29.80 in - Calm Calm - N/A   Unknown
8:51 AM 55.0 °F 39.9 °F 57% 29.79 in - Calm Calm - N/A   Unknown
9:51 AM 57.0 °F 41.0 °F 55% 29.85 in - Calm Calm - N/A   Unknown
10:51 AM 64.0 °F 39.0 °F 40% 29.87 in - WNW 9.2 mph 17.3 mph N/A   Unknown
11:51 AM 64.0 °F 39.0 °F 40% 29.92 in - WSW 9.2 mph - N/A   Unknown
12:51 PM 61.0 °F 43.0 °F 52% 29.93 in - SE 9.2 mph - N/A   Unknown
1:51 PM 64.9 °F 39.9 °F 40% 29.89 in - SE 16.1 mph 25.3 mph N/A   Unknown
2:51 PM 64.9 °F 42.1 °F 43% 29.89 in - SE 11.5 mph 23.0 mph N/A   Unknown
3:51 PM 66.9 °F 42.1 °F 40% 29.87 in - SSE 5.8 mph - N/A   Unknown
4:51 PM 70.0 °F 36.0 °F 29% 29.86 in - Variable 3.5 mph - N/A   Unknown
5:51 PM 70.0 °F 34.0 °F 27% 29.84 in - Calm Calm - N/A   Unknown
6:51 PM 66.9 °F 37.0 °F 33% 29.84 in - South 9.2 mph - N/A   Unknown
7:51 PM 66.9 °F 37.0 °F 33% 29.82 in - SE 6.9 mph - N/A   Unknown
8:51 PM 64.0 °F 39.0 °F 40% 29.81 in - SE 8.1 mph 18.4 mph N/A   Unknown
9:51 PM 60.1 °F 39.0 °F 46% 29.83 in - SSE 5.8 mph - N/A   Unknown
10:51 PM 60.1 °F 39.9 °F 47% 29.87 in - NNW 16.1 mph 29.9 mph N/A   Unknown
11:51 PM 53.1 °F 44.1 °F 71% 29.88 in - ESE 4.6 mph - N/A   Unknown